EW9744 Weather Reports


Display with metric or nautical units.
time (UTC)temp
F
wind
direction
speed
MPH
gust
MPH
rain 1hr
in
rain 24hr
in
rain mn
in
humidity
%
barometer
mb
20260831150029 56 16 1.0 3.0 0.00 0.00 0.00 80 1016.9
20260831141606 51 315 0.0 1.0 0.00 0.00 0.00 88 1016.8
20260831140105 51 315 2.0 4.0 0.00 0.00 0.00 88 1016.7
20260831133106 50 290 3.0 5.0 0.00 0.00 0.00 88 1016.6
20260831131532 51 292 4.0 5.0 0.00 0.00 0.00 88 1016.6
20260831130030 51 290 4.0 6.0 0.00 0.00 0.00 88 1016.7
20260831124530 51 295 3.0 4.0 0.00 0.00 0.00 88 1016.7
20260831123033 50 292 3.0 5.0 0.00 0.00 0.00 87 1016.6
20260831121533 50 292 4.0 5.0 0.00 0.00 0.00 86 1016.6
20260831120029 50 277 4.0 5.0 0.00 0.00 0.00 85 1016.6
20260831114530 50 289 3.0 4.0 0.00 0.00 0.00 85 1016.7
20260831113107 50 300 3.0 4.0 0.00 0.00 0.00 85 1016.7
20260831110030 50 315 2.0 3.0 0.00 0.00 0.00 84 1016.8
20260831103032 51 315 2.0 4.0 0.00 0.00 0.00 83 1016.8
20260831101530 52 315 2.0 4.0 0.00 0.00 0.00 82 1016.8
20260831100029 52 290 3.0 4.0 0.00 0.00 0.00 82 1017.0
20260831094608 52 279 4.0 5.0 0.00 0.00 0.00 82 1017.1
20260831093029 52 270 4.0 5.0 0.00 0.00 0.00 82 1017.2
20260831091602 52 281 2.0 5.0 0.00 0.00 0.00 82 1017.3
20260831090033 52 292 3.0 5.0 0.00 0.00 0.00 82 1017.3
20260831084528 52 292 5.0 6.0 0.00 0.00 0.00 83 1017.4
20260831083033 52 292 4.0 5.0 0.00 0.00 0.00 83 1017.6
20260831081530 52 297 3.0 4.0 0.00 0.00 0.00 83 1017.7
20260831080031 52 295 3.0 5.0 0.00 0.00 0.00 82 1017.8
20260831074604 52 292 3.0 4.0 0.00 0.00 0.00 82 1017.8
20260831071603 53 273 3.0 5.0 0.00 0.00 0.00 81 1017.9
20260831064532 54 295 3.0 4.0 0.00 0.00 0.00 80 1017.9
20260831063030 54 292 3.0 5.0 0.00 0.00 0.00 79 1018.0
20260831061607 55 283 4.0 5.0 0.00 0.00 0.00 78 1018.2
20260831060027 55 307 2.0 5.0 0.00 0.00 0.00 78 1018.2
20260831054530 55 294 4.0 6.0 0.00 0.00 0.00 78 1018.3
20260831053035 55 280 5.0 7.0 0.00 0.00 0.00 78 1018.4
20260831051529 55 274 4.0 6.0 0.00 0.00 0.00 78 1018.4
20260831050026 55 237 4.0 6.0 0.00 0.00 0.00 78 1018.5
20260831044542 0 0 0.0 0.0 0.00 0.00 0.00 100
20260831043103 57 256 5.0 5.0 0.00 0.00 0.00 73 1018.5
20260831041531 58 263 3.0 5.0 0.00 0.00 0.00 70 1018.6
20260831040032 60 217 2.0 4.0 0.00 0.00 0.00 67 1018.6
20260831034605 60 197 2.0 5.0 0.00 0.00 0.00 66 1018.4
20260831033107 60 287 4.0 9.0 0.00 0.00 0.00 66 1018.2
20260831031530 61 287 6.0 11.0 0.00 0.00 0.00 66 1018.1
20260831030028 62 287 6.0 10.0 0.00 0.00 0.00 63 1018.2
20260831023027 63 295 8.0 17.0 0.00 0.00 0.00 60 1018.2
20260831011608 65 300 10.0 19.0 0.00 0.00 0.00 53 1018.4
20260831010105 66 313 9.0 18.0 0.00 0.00 0.00 51 1018.5
20260831004531 67 314 8.0 19.0 0.00 0.00 0.00 49 1018.5
20260831003029 68 312 8.0 17.0 0.00 0.00 0.00 49 1018.6
20260831001645 68 318 10.0 20.0 0.00 0.00 0.00 48 1018.5
20260831000032 69 322 10.0 20.0 0.00 0.00 0.00 44 1018.6
20260830234532 70 319 11.0 25.0 0.00 0.00 0.00 43 1018.7
20260830233030 70 317 10.0 18.0 0.00 0.00 0.00 43 1018.8
20260830231602 70 317 10.0 22.0 0.00 0.00 0.00 43 1018.9
20260830230029 70 307 10.0 20.0 0.00 0.00 0.00 45 1019.1
20260830224533 69 322 10.0 20.0 0.00 0.00 0.00 45 1019.2
20260830220028 69 334 11.0 21.0 0.00 0.00 0.00 47 1019.7
20260830214528 68 334 11.0 22.0 0.00 0.00 0.00 48 1019.9
20260830213031 68 326 11.0 21.0 0.00 0.00 0.00 49 1020.1
20260830211536 67 331 10.0 22.0 0.00 0.00 0.00 50 1020.2
20260830210030 67 328 11.0 19.0 0.00 0.00 0.00 50 1020.3
20260830204525 67 333 10.0 19.0 0.00 0.00 0.00 51 1020.3
20260830203031 67 331 10.0 18.0 0.00 0.00 0.00 52 1020.5
20260830201531 66 340 10.0 18.0 0.00 0.00 0.00 52 1020.6
20260830200030 66 330 8.0 18.0 0.00 0.00 0.00 53 1020.8
20260830194645 64 325 8.0 16.0 0.00 0.00 0.00 54 1021.0
20260830193032 64 324 9.0 18.0 0.00 0.00 0.00 56 1021.1
20260830191605 65 326 7.0 15.0 0.00 0.00 0.00 56 1021.2
20260830184530 63 325 6.0 14.0 0.00 0.00 0.00 59 1021.6
20260830183031 63 312 6.0 15.0 0.00 0.00 0.00 59 1021.6
20260830181528 63 20 5.0 11.0 0.00 0.00 0.00 60 1021.6
20260830180029 63 83 4.0 8.0 0.00 0.00 0.00 61 1021.7
20260830174604 62 79 4.0 9.0 0.00 0.00 0.00 62 1021.6
20260830173029 62 121 3.0 9.0 0.00 0.00 0.00 62 1021.6
20260830171530 61 114 3.0 7.0 0.00 0.00 0.00 63 1021.7
20260830164533 59 68 2.0 7.0 0.00 0.00 0.00 66 1022.0
20260830163031 58 128 2.0 8.0 0.00 0.00 0.00 68 1022.1
20260830161644 56 24 2.0 5.0 0.00 0.00 0.00 71 1022.3
20260830160032 55 357 1.0 4.0 0.00 0.00 0.00 72 1022.4
20260830154529 54 26 1.0 4.0 0.00 0.00 0.00 73 1022.4
20260830153027 54 25 2.0 6.0 0.00 0.00 0.00 75 1022.5
20260830151608 53 39 1.0 4.0 0.00 0.00 0.00 77 1022.4